Location: Palmerston North
(40.3500°S, 175.6170°E)
Time: 09:11:56
(UTC+13:00)

Cosmos 2237 Rocket - Pass Details

Date: 24 January 2019
Orbit: 833 x 851 km, 71.0° (Epoch: 21 February)

Event Time Altitude Azimuth Distance (km) Brightness Sun altitude
Exits shadow 23:51:02 33° 103° (ESE) 1,403 3.2 -26.2°
Drops below altitude 10° 23:54:57 10° 140° (SE) 2,488 4.9 -26.5°
Sets 23:57:34 0° 148° (SSE) 3,427 5.8 -26.7°
